Simultaneous Nadir Overpasses (SNOs) Predictions

Prediction of SNOs between METOP-B and NOAA-19 Satellite Orbit:

Table of predicted SNOs for the next 14.0 days since TLE Epoch: 4/5/2014
Index Date (METOP-B) Time (METOP-B) Lat,Lon (METOP-B) SZA (METOP-B ) Date (NOAA-19) Time (NOAA-19) Lat,Lon (NOAA-19) SZA (NOAA-19 ) Distance(km) Time Diff (sec)
1 04/13/2014 10:11:52 74.09, 22.25 64.98 04/13/2014 10:10:40 74.11, 21.14 65.04 33.84 72
2 04/13/2014 11:02:39 -73.87,-170.96 115.24 04/13/2014 11:01:40 -73.87,-171.02 115.24 1.95 59
3 04/13/2014 11:53:19 73.82, -3.75 64.70 04/13/2014 11:52:38 73.83, -3.67 64.71 2.67 41
4 04/13/2014 12:44:01 -73.85, 163.64 115.29 04/13/2014 12:43:43 -73.83, 163.55 115.30 3.42 18
5 04/13/2014 13:34:41 73.80, -29.14 64.65 04/13/2014 13:34:41 73.79, -29.09 64.64 1.81 0
6 04/13/2014 14:25:24 -73.78, 138.13 115.38 04/13/2014 14:25:46 -73.80, 138.13 115.37 2.01 22
7 04/13/2014 15:16:03 73.78, -54.54 64.61 04/13/2014 15:16:44 73.76, -54.51 64.58 2.44 41
8 04/13/2014 16:06:46 -73.76, 112.74 115.43 04/13/2014 16:07:49 -73.76, 112.70 115.43 1.13 63
9 04/13/2014 16:57:31 73.45, -80.63 64.28 04/13/2014 16:58:42 73.47, -79.35 64.25 40.48 71




NCC Satellite Simultaneous Nadir Overpasses (SNOs) Prediction Service
